Regional Weather Roundup
Issued by NWS

Home | Current Version | Previous Version | Graphics & Text | Print | Product List | Glossary On
Versions: 1 2 3 4 5 6 7 8 9 10 11 12 13 14 15 16 17 18 19 20 21 22 23 24 25 26 27 28 29 30 31 32 33 34 35 36 37 38 39 40 41 42 43 44 45 46 47 48 49 50
000
ASUS43 KLMK 302002
RWRKY
KENTUCKY REGIONAL WEATHER ROUNDUP
NATIONAL WEATHER SERVICE LOUISVILLE KY
400 PM EDT SUN APR 30 2017

NOTE "FAIR" INDICATES FEW OR NO CLOUDS BELOW 12,000 FEET
WITH NO SIGNIFICANT WEATHER AND/OR OBSTRUCTIONS TO VISIBILITY.

KYZ001>023-026-027-061>063-070>075-302100-
WESTERN AND SOUTH CENTRAL KENTUCKY

CITY           SKY/WX    TMP DP  RH WIND       PRES   REMARKS
PADUCAH        CLOUDY    72  68  87 S9        29.69R
HENDERSON        N/A    N/A N/A N/A MISG        N/A
OWENSBORO      CLOUDY    79  66  64 S17       29.75F
HOPKINSVILLE   CLOUDY    76  66  72 S17G29    29.75F
BOWLING GREEN  CLOUDY    82  64  54 S20G33    29.83F
GLASGOW        NOT AVBL
$$

KYZ024-025-028>034-038-045-046-053-302100-
NORTH CENTRAL KENTUCKY

CITY           SKY/WX    TMP DP  RH WIND       PRES   REMARKS
LOUISVILLE/SDF CLOUDY    84  64  50 S23G32    29.81F
LOUISVILLE/LOU CLOUDY    83  66  56 S15G24    29.82F
FORT KNOX      CLOUDY    80  64  58 S22G29    29.81F
$$

KYZ035>037-039>044-047>052-055>060-089>105-302100-
NORTHEAST KENTUCKY

CITY           SKY/WX    TMP DP  RH WIND       PRES   REMARKS
LEXINGTON      CLOUDY    84  63  49 S20G29    29.89F
COVINGTON      CLOUDY    80  67  64 S15       29.84F
FRANKFORT      CLOUDY    83  61  47 S22G32    29.86F
$$

KYZ054-064>069-076>088-106>120-302100-
SOUTHEAST KENTUCKY

CITY           SKY/WX    TMP DP  RH WIND       PRES   REMARKS
JACKSON        CLOUDY    83  59  44 VRB7      29.97F
LONDON         PTSUNNY   83  56  39 S16G26    29.97F
SOMERSET       NOT AVBL
MIDDLESBORO    PTSUNNY   85  58  39 S7G17     29.99F
MONTICELLO     CLOUDY    82  64  54 S14G25    29.94F
$$




USA.gov is the U.S. government's official web portal to all federal, state and local government web resources and services.